{"data":{"norad_id":38857,"epoch":"2026-09-18T03:45:25.392960Z","epoch_age_seconds":216908,"freshness":"STALE","line1":"1 38857U 12055A   26261.15654390  .00000015  00000+0  00000+0 0  9998","line2":"2 38857  55.8637  98.9927 0001881 313.2661  46.7895  1.70473599 86593","mean_motion":1.70473599,"eccentricity":0.0001881,"inclination_deg":55.8637,"raan_deg":98.9927,"arg_perigee_deg":313.2661,"mean_anomaly_deg":46.7895,"bstar":0,"rev_number":8659,"period_min":844.70557813471,"perigee_km":23216.66164725,"apogee_km":23227.797305119,"semimajor_km":29600.366476185,"source":"CELESTRAK","updated_at":"2026-09-20T09:00:46.491897Z"}}